owner,sensor,date,latitude,longitude,vertical_datum,wind_speed,wind_to_direction,wind_speed_of_gust,qcFlag 
TCOON,ioos:station:TCOON:057:1,2014-06-01T00:00:00Z,28.4460,-96.3961,0.0,3.6,127.0,4.2,'1111122,1111122,1111122' 
TCOON,ioos:station:TCOON:057:1,2014-06-01T00:06:00Z,28.4460,-96.3961,0.0,3.1,133.0,3.8,'11111222,11111222,11111222' 
TCOON,ioos:station:TCOON:057:1,2014-06-01T00:12:00Z,28.4460,-96.3961,0.0,3.9,136.0,4.3,'11111222,11111222,11111222' 
TCOON,ioos:station:TCOON:057:1,2014-06-01T00:18:00Z,28.4460,-96.3961,0.0,4.0,138.0,4.5,'11111222,11111222,11111222' 
TCOON,ioos:station:TCOON:057:1,2014-06-01T00:24:00Z,28.4460,-96.3961,0.0,3.2,140.0,4.6,'11111222,11111222,11111222' 
TCOON,ioos:station:TCOON:057:1,2014-06-01T00:30:00Z,28.4460,-96.3961,0.0,3.8,153.0,5.2,'11111222,11111222,11111222' 
TCOON,ioos:station:TCOON:057:1,2014-06-01T00:36:00Z,28.4460,-96.3961,0.0,3.9,160.0,4.2,'11111222,11111222,11111222' 
TCOON,ioos:station:TCOON:057:1,2014-06-01T00:42:00Z,28.4460,-96.3961,0.0,3.3,152.0,4.4,'11111222,11111222,11111222' 
TCOON,ioos:station:TCOON:057:1,2014-06-01T00:48:00Z,28.4460,-96.3961,0.0,3.6,156.0,4.3,'11111222,11111222,11111222' 
TCOON,ioos:station:TCOON:057:1,2014-06-01T00:54:00Z,28.4460,-96.3961,0.0,3.4,153.0,4.0,'11111222,11111222,11111222' 
TCOON,ioos:station:TCOON:057:1,2014-06-01T01:00:00Z,28.4460,-96.3961,0.0,3.4,153.0,4.0,'1111122,1111122,1111122' 
TCOON,ioos:station:TCOON:057:1,2014-06-01T01:06:00Z,28.4460,-96.3961,0.0,4.4,109.0,4.8,'11111222,11111222,11111222' 
TCOON,ioos:station:TCOON:057:1,2014-06-01T01:12:00Z,28.4460,-96.3961,0.0,4.4,105.0,4.9,'11111222,11111222,11111222' 
TCOON,ioos:station:TCOON:057:1,2014-06-01T01:18:00Z,28.4460,-96.3961,0.0,4.2,113.0,5.1,'11111222,11111222,11111222' 
TCOON,ioos:station:TCOON:057:1,2014-06-01T01:24:00Z,28.4460,-96.3961,0.0,4.1,120.0,4.8,'11111222,11111222,11111222' 
TCOON,ioos:station:TCOON:057:1,2014-06-01T01:30:00Z,28.4460,-96.3961,0.0,3.3,120.0,4.3,'11111222,11111222,11111222' 
TCOON,ioos:station:TCOON:057:1,2014-06-01T01:36:00Z,28.4460,-96.3961,0.0,3.2,125.0,3.9,'11111222,11111222,11111222' 
TCOON,ioos:station:TCOON:057:1,2014-06-01T01:42:00Z,28.4460,-96.3961,0.0,3.4,135.0,3.8,'11111222,11111222,11111222' 
TCOON,ioos:station:TCOON:057:1,2014-06-01T01:48:00Z,28.4460,-96.3961,0.0,3.1,127.0,3.8,'11111222,11111222,11111222' 
TCOON,ioos:station:TCOON:057:1,2014-06-01T01:54:00Z,28.4460,-96.3961,0.0,3.8,120.0,4.2,'11111222,11111222,11111222' 
TCOON,ioos:station:TCOON:057:1,2014-06-01T02:00:00Z,28.4460,-96.3961,0.0,3.8,120.0,4.2,'1111122,1111122,1111122' 
TCOON,ioos:station:TCOON:057:1,2014-06-01T02:06:00Z,28.4460,-96.3961,0.0,3.1,144.0,3.6,'11111222,11111222,11111222' 
TCOON,ioos:station:TCOON:057:1,2014-06-01T02:12:00Z,28.4460,-96.3961,0.0,3.3,135.0,3.6,'11111222,11111222,11111222' 
TCOON,ioos:station:TCOON:057:1,2014-06-01T02:18:00Z,28.4460,-96.3961,0.0,3.0,132.0,3.7,'11111222,11111222,11111222' 
TCOON,ioos:station:TCOON:057:1,2014-06-01T02:24:00Z,28.4460,-96.3961,0.0,3.7,125.0,4.1,'11111222,11111222,11111222' 
TCOON,ioos:station:TCOON:057:1,2014-06-01T02:30:00Z,28.4460,-96.3961,0.0,4.0,120.0,4.5,'11111222,11111222,11111222' 
TCOON,ioos:station:TCOON:057:1,2014-06-01T02:36:00Z,28.4460,-96.3961,0.0,4.3,121.0,4.8,'11111222,11111222,11111222' 
TCOON,ioos:station:TCOON:057:1,2014-06-01T02:42:00Z,28.4460,-96.3961,0.0,4.6,115.0,5.1,'11111222,11111222,11111222' 
TCOON,ioos:station:TCOON:057:1,2014-06-01T02:48:00Z,28.4460,-96.3961,0.0,4.2,119.0,4.8,'11111222,11111222,11111222' 
TCOON,ioos:station:TCOON:057:1,2014-06-01T02:54:00Z,28.4460,-96.3961,0.0,4.6,120.0,4.9,'11111222,11111222,11111222' 
TCOON,ioos:station:TCOON:057:1,2014-06-01T03:00:00Z,28.4460,-96.3961,0.0,4.6,120.0,4.9,'1111122,1111122,1111122' 
TCOON,ioos:station:TCOON:057:1,2014-06-01T03:06:00Z,28.4460,-96.3961,0.0,4.2,115.0,5.2,'11111222,11111222,11111222' 
TCOON,ioos:station:TCOON:057:1,2014-06-01T03:12:00Z,28.4460,-96.3961,0.0,3.5,120.0,4.5,'11111222,11111222,11111222' 
TCOON,ioos:station:TCOON:057:1,2014-06-01T03:18:00Z,28.4460,-96.3961,0.0,4.3,116.0,4.8,'11111222,11111222,11111222' 
TCOON,ioos:station:TCOON:057:1,2014-06-01T03:24:00Z,28.4460,-96.3961,0.0,4.1,112.0,4.9,'11111222,11111222,11111222' 
TCOON,ioos:station:TCOON:057:1,2014-06-01T03:30:00Z,28.4460,-96.3961,0.0,4.5,107.0,5.2,'11111222,11111222,11111222' 
TCOON,ioos:station:TCOON:057:1,2014-06-01T03:36:00Z,28.4460,-96.3961,0.0,5.0,112.0,5.5,'11111222,11111222,11111222' 
TCOON,ioos:station:TCOON:057:1,2014-06-01T03:42:00Z,28.4460,-96.3961,0.0,4.6,119.0,5.2,'11111222,11111222,11111222' 
TCOON,ioos:station:TCOON:057:1,2014-06-01T03:48:00Z,28.4460,-96.3961,0.0,4.9,117.0,6.0,'11111222,11111222,11111222' 
TCOON,ioos:station:TCOON:057:1,2014-06-01T03:54:00Z,28.4460,-96.3961,0.0,4.5,115.0,5.7,'11111222,11111222,11111222' 
TCOON,ioos:station:TCOON:057:1,2014-06-01T04:00:00Z,28.4460,-96.3961,0.0,4.5,115.0,5.7,'1111122,1111122,1111122' 
TCOON,ioos:station:TCOON:057:1,2014-06-01T04:06:00Z,28.4460,-96.3961,0.0,5.0,116.0,5.7,'11111222,11111222,11111222' 
TCOON,ioos:station:TCOON:057:1,2014-06-01T04:12:00Z,28.4460,-96.3961,0.0,4.9,115.0,5.6,'11111222,11111222,11111222' 
TCOON,ioos:station:TCOON:057:1,2014-06-01T04:18:00Z,28.4460,-96.3961,0.0,4.6,117.0,5.7,'11111222,11111222,11111222' 
TCOON,ioos:station:TCOON:057:1,2014-06-01T04:24:00Z,28.4460,-96.3961,0.0,5.3,116.0,5.8,'11111222,11111222,11111222' 
TCOON,ioos:station:TCOON:057:1,2014-06-01T04:30:00Z,28.4460,-96.3961,0.0,5.5,127.0,6.1,'11111222,11111222,11111222' 
TCOON,ioos:station:TCOON:057:1,2014-06-01T04:36:00Z,28.4460,-96.3961,0.0,5.0,126.0,6.1,'11111222,11111222,11111222' 
TCOON,ioos:station:TCOON:057:1,2014-06-01T04:42:00Z,28.4460,-96.3961,0.0,5.0,135.0,6.0,'11111222,11111222,11111222' 
TCOON,ioos:station:TCOON:057:1,2014-06-01T04:48:00Z,28.4460,-96.3961,0.0,4.9,136.0,5.5,'11111222,11111222,11111222' 
TCOON,ioos:station:TCOON:057:1,2014-06-01T04:54:00Z,28.4460,-96.3961,0.0,4.6,135.0,5.2,'11111222,11111222,11111222' 
TCOON,ioos:station:TCOON:057:1,2014-06-01T05:00:00Z,28.4460,-96.3961,0.0,4.6,135.0,5.2,'1111122,1111122,1111122' 
TCOON,ioos:station:TCOON:057:1,2014-06-01T05:06:00Z,28.4460,-96.3961,0.0,4.0,126.0,4.8,'11111222,11111222,11111222' 
TCOON,ioos:station:TCOON:057:1,2014-06-01T05:12:00Z,28.4460,-96.3961,0.0,3.9,128.0,4.4,'11111222,11111222,11111222' 
TCOON,ioos:station:TCOON:057:1,2014-06-01T05:18:00Z,28.4460,-96.3961,0.0,4.2,128.0,4.7,'11111222,11111222,11111222' 
TCOON,ioos:station:TCOON:057:1,2014-06-01T05:24:00Z,28.4460,-96.3961,0.0,3.7,146.0,4.3,'11111222,11111222,11111222' 
TCOON,ioos:station:TCOON:057:1,2014-06-01T05:30:00Z,28.4460,-96.3961,0.0,3.7,132.0,4.5,'11111222,11111222,11111222' 
TCOON,ioos:station:TCOON:057:1,2014-06-01T05:36:00Z,28.4460,-96.3961,0.0,4.2,130.0,4.9,'11111222,11111222,11111222' 
TCOON,ioos:station:TCOON:057:1,2014-06-01T05:42:00Z,28.4460,-96.3961,0.0,4.2,131.0,5.1,'11111222,11111222,11111222' 
TCOON,ioos:station:TCOON:057:1,2014-06-01T05:48:00Z,28.4460,-96.3961,0.0,4.3,127.0,5.5,'11111222,11111222,11111222' 
TCOON,ioos:station:TCOON:057:1,2014-06-01T05:54:00Z,28.4460,-96.3961,0.0,4.5,129.0,5.0,'11111222,11111222,11111222' 
TCOON,ioos:station:TCOON:057:1,2014-06-01T06:00:00Z,28.4460,-96.3961,0.0,4.5,133.0,5.3,'11111222,11111222,11111222' 
TCOON,ioos:station:TCOON:057:1,2014-06-01T06:06:00Z,28.4460,-96.3961,0.0,4.7,145.0,5.3,'11111222,11111222,11111222' 
TCOON,ioos:station:TCOON:057:1,2014-06-01T06:12:00Z,28.4460,-96.3961,0.0,4.3,141.0,5.1,'11111222,11111222,11111222' 
TCOON,ioos:station:TCOON:057:1,2014-06-01T06:18:00Z,28.4460,-96.3961,0.0,4.2,147.0,4.8,'11111222,11111222,11111222' 
TCOON,ioos:station:TCOON:057:1,2014-06-01T06:24:00Z,28.4460,-96.3961,0.0,3.9,142.0,4.8,'11111222,11111222,11111222' 
TCOON,ioos:station:TCOON:057:1,2014-06-01T06:30:00Z,28.4460,-96.3961,0.0,3.9,142.0,4.8,'1111122,1111122,1111122' 
TCOON,ioos:station:TCOON:057:1,2014-06-01T06:36:00Z,28.4460,-96.3961,0.0,4.5,133.0,5.1,'11111222,11111222,11111222' 
TCOON,ioos:station:TCOON:057:1,2014-06-01T06:42:00Z,28.4460,-96.3961,0.0,3.9,138.0,4.6,'11111222,11111222,11111222' 
TCOON,ioos:station:TCOON:057:1,2014-06-01T06:48:00Z,28.4460,-96.3961,0.0,4.2,139.0,5.0,'11111222,11111222,11111222' 
TCOON,ioos:station:TCOON:057:1,2014-06-01T06:54:00Z,28.4460,-96.3961,0.0,4.1,138.0,4.6,'11111222,11111222,11111222' 
TCOON,ioos:station:TCOON:057:1,2014-06-01T07:00:00Z,28.4460,-96.3961,0.0,4.1,138.0,4.6,'1111122,1111122,1111122' 
TCOON,ioos:station:TCOON:057:1,2014-06-01T07:06:00Z,28.4460,-96.3961,0.0,4.4,144.0,5.1,'11111222,11111222,11111222' 
TCOON,ioos:station:TCOON:057:1,2014-06-01T07:12:00Z,28.4460,-96.3961,0.0,4.1,136.0,4.9,'11111222,11111222,11111222' 
TCOON,ioos:station:TCOON:057:1,2014-06-01T07:18:00Z,28.4460,-96.3961,0.0,3.8,140.0,4.6,'11111222,11111222,11111222' 
TCOON,ioos:station:TCOON:057:1,2014-06-01T07:24:00Z,28.4460,-96.3961,0.0,3.5,136.0,4.2,'11111222,11111222,11111222' 
TCOON,ioos:station:TCOON:057:1,2014-06-01T07:30:00Z,28.4460,-96.3961,0.0,3.2,141.0,3.9,'11111222,11111222,11111222' 
TCOON,ioos:station:TCOON:057:1,2014-06-01T07:36:00Z,28.4460,-96.3961,0.0,2.9,143.0,3.6,'11111222,11111222,11111222' 
TCOON,ioos:station:TCOON:057:1,2014-06-01T07:42:00Z,28.4460,-96.3961,0.0,2.7,142.0,3.3,'11111222,11111222,11111222' 
TCOON,ioos:station:TCOON:057:1,2014-06-01T07:48:00Z,28.4460,-96.3961,0.0,2.4,139.0,3.1,'11111222,11111222,11111222' 
TCOON,ioos:station:TCOON:057:1,2014-06-01T07:54:00Z,28.4460,-96.3961,0.0,2.6,142.0,3.2,'11111222,11111222,11111222' 
TCOON,ioos:station:TCOON:057:1,2014-06-01T08:00:00Z,28.4460,-96.3961,0.0,2.6,142.0,3.2,'1111122,1111122,1111122' 
TCOON,ioos:station:TCOON:057:1,2014-06-01T08:06:00Z,28.4460,-96.3961,0.0,3.0,134.0,3.8,'11111222,11111222,11111222' 
TCOON,ioos:station:TCOON:057:1,2014-06-01T08:12:00Z,28.4460,-96.3961,0.0,3.1,143.0,3.6,'11111222,11111222,11111222' 
TCOON,ioos:station:TCOON:057:1,2014-06-01T08:18:00Z,28.4460,-96.3961,0.0,3.1,137.0,3.5,'11111222,11111222,11111222' 
TCOON,ioos:station:TCOON:057:1,2014-06-01T08:24:00Z,28.4460,-96.3961,0.0,3.0,137.0,3.6,'11111222,11111222,11111222' 
TCOON,ioos:station:TCOON:057:1,2014-06-01T08:30:00Z,28.4460,-96.3961,0.0,3.2,136.0,3.8,'11111222,11111222,11111222' 
TCOON,ioos:station:TCOON:057:1,2014-06-01T08:36:00Z,28.4460,-96.3961,0.0,3.4,141.0,3.9,'11111222,11111222,11111222' 
TCOON,ioos:station:TCOON:057:1,2014-06-01T08:42:00Z,28.4460,-96.3961,0.0,3.1,130.0,3.9,'11111222,11111222,11111222' 
TCOON,ioos:station:TCOON:057:1,2014-06-01T08:48:00Z,28.4460,-96.3961,0.0,3.0,127.0,3.8,'11111222,11111222,11111222' 
TCOON,ioos:station:TCOON:057:1,2014-06-01T08:54:00Z,28.4460,-96.3961,0.0,3.3,129.0,3.8,'11111222,11111222,11111222' 
TCOON,ioos:station:TCOON:057:1,2014-06-01T09:00:00Z,28.4460,-96.3961,0.0,3.3,129.0,3.8,'1111122,1111122,1111122' 
TCOON,ioos:station:TCOON:057:1,2014-06-01T09:06:00Z,28.4460,-96.3961,0.0,2.7,124.0,3.4,'11111222,11111222,11111222' 
TCOON,ioos:station:TCOON:057:1,2014-06-01T09:12:00Z,28.4460,-96.3961,0.0,3.1,118.0,3.5,'11111222,11111222,11111222' 
TCOON,ioos:station:TCOON:057:1,2014-06-01T09:18:00Z,28.4460,-96.3961,0.0,2.9,128.0,3.6,'11111222,11111222,11111222' 
TCOON,ioos:station:TCOON:057:1,2014-06-01T09:24:00Z,28.4460,-96.3961,0.0,2.8,123.0,3.5,'11111222,11111222,11111222' 
TCOON,ioos:station:TCOON:057:1,2014-06-01T09:30:00Z,28.4460,-96.3961,0.0,2.9,127.0,3.3,'11111222,11111222,11111222' 
TCOON,ioos:station:TCOON:057:1,2014-06-01T09:36:00Z,28.4460,-96.3961,0.0,2.3,127.0,3.1,'11111222,11111222,11111222' 
TCOON,ioos:station:TCOON:057:1,2014-06-01T09:42:00Z,28.4460,-96.3961,0.0,2.0,139.0,3.0,'11111222,11111222,11111222' 
TCOON,ioos:station:TCOON:057:1,2014-06-01T09:48:00Z,28.4460,-96.3961,0.0,1.7,123.0,2.4,'11111222,11111222,11111222' 
TCOON,ioos:station:TCOON:057:1,2014-06-01T09:54:00Z,28.4460,-96.3961,0.0,2.0,138.0,2.3,'11111222,11111222,11111222' 
TCOON,ioos:station:TCOON:057:1,2014-06-01T10:00:00Z,28.4460,-96.3961,0.0,2.0,138.0,2.3,'1111122,1111122,1111122' 
TCOON,ioos:station:TCOON:057:1,2014-06-01T10:06:00Z,28.4460,-96.3961,0.0,1.7,139.0,2.3,'11111222,11111222,11111222' 
TCOON,ioos:station:TCOON:057:1,2014-06-01T10:12:00Z,28.4460,-96.3961,0.0,2.5,131.0,2.7,'11111222,11111222,11111222' 
TCOON,ioos:station:TCOON:057:1,2014-06-01T10:18:00Z,28.4460,-96.3961,0.0,1.9,129.0,2.7,'11111222,11111222,11111222' 
TCOON,ioos:station:TCOON:057:1,2014-06-01T10:24:00Z,28.4460,-96.3961,0.0,2.1,127.0,2.6,'11111222,11111222,11111222' 
TCOON,ioos:station:TCOON:057:1,2014-06-01T10:30:00Z,28.4460,-96.3961,0.0,1.8,121.0,2.2,'11111222,11111222,11111222' 
TCOON,ioos:station:TCOON:057:1,2014-06-01T10:36:00Z,28.4460,-96.3961,0.0,1.9,128.0,2.3,'11111222,11111222,11111222' 
TCOON,ioos:station:TCOON:057:1,2014-06-01T10:42:00Z,28.4460,-96.3961,0.0,2.2,113.0,2.9,'11111222,11111222,11111222' 
TCOON,ioos:station:TCOON:057:1,2014-06-01T10:48:00Z,28.4460,-96.3961,0.0,2.2,114.0,2.8,'11111222,11111222,11111222' 
TCOON,ioos:station:TCOON:057:1,2014-06-01T10:54:00Z,28.4460,-96.3961,0.0,2.2,114.0,2.9,'11111222,11111222,11111222' 
TCOON,ioos:station:TCOON:057:1,2014-06-01T11:00:00Z,28.4460,-96.3961,0.0,2.2,114.0,2.9,'1111122,1111122,1111122' 
TCOON,ioos:station:TCOON:057:1,2014-06-01T11:06:00Z,28.4460,-96.3961,0.0,2.5,105.0,2.9,'11111222,11111222,11111222' 
TCOON,ioos:station:TCOON:057:1,2014-06-01T11:12:00Z,28.4460,-96.3961,0.0,2.3,106.0,3.2,'11111222,11111222,11111222' 
TCOON,ioos:station:TCOON:057:1,2014-06-01T11:18:00Z,28.4460,-96.3961,0.0,2.8,109.0,3.4,'11111222,11111222,11111222' 
TCOON,ioos:station:TCOON:057:1,2014-06-01T11:24:00Z,28.4460,-96.3961,0.0,2.8,111.0,3.5,'11111222,11111222,11111222' 
TCOON,ioos:station:TCOON:057:1,2014-06-01T11:30:00Z,28.4460,-96.3961,0.0,3.0,109.0,3.6,'11111222,11111222,11111222' 
TCOON,ioos:station:TCOON:057:1,2014-06-01T11:36:00Z,28.4460,-96.3961,0.0,2.8,93.0,3.9,'11111222,11111222,11111222' 
TCOON,ioos:station:TCOON:057:1,2014-06-01T11:42:00Z,28.4460,-96.3961,0.0,3.2,94.0,3.6,'11111222,11111222,11111222' 
TCOON,ioos:station:TCOON:057:1,2014-06-01T11:48:00Z,28.4460,-96.3961,0.0,3.6,102.0,4.2,'11111222,11111222,11111222' 
TCOON,ioos:station:TCOON:057:1,2014-06-01T11:54:00Z,28.4460,-96.3961,0.0,3.6,96.0,4.4,'11111222,11111222,11111222' 
TCOON,ioos:station:TCOON:057:1,2014-06-01T12:00:00Z,28.4460,-96.3961,0.0,3.6,96.0,4.4,'1111122,1111122,1111122' 
TCOON,ioos:station:TCOON:057:1,2014-06-01T12:06:00Z,28.4460,-96.3961,0.0,3.1,94.0,4.1,'11111222,11111222,11111222' 
TCOON,ioos:station:TCOON:057:1,2014-06-01T12:12:00Z,28.4460,-96.3961,0.0,3.4,97.0,3.8,'11111222,11111222,11111222' 
TCOON,ioos:station:TCOON:057:1,2014-06-01T12:18:00Z,28.4460,-96.3961,0.0,3.5,100.0,4.2,'11111222,11111222,11111222' 
TCOON,ioos:station:TCOON:057:1,2014-06-01T12:24:00Z,28.4460,-96.3961,0.0,3.3,100.0,4.1,'11111222,11111222,11111222' 
TCOON,ioos:station:TCOON:057:1,2014-06-01T12:30:00Z,28.4460,-96.3961,0.0,3.3,95.0,3.7,'11111222,11111222,11111222' 
TCOON,ioos:station:TCOON:057:1,2014-06-01T12:36:00Z,28.4460,-96.3961,0.0,3.2,108.0,3.8,'11111222,11111222,11111222' 
TCOON,ioos:station:TCOON:057:1,2014-06-01T12:42:00Z,28.4460,-96.3961,0.0,2.6,110.0,3.8,'11111222,11111222,11111222' 
TCOON,ioos:station:TCOON:057:1,2014-06-01T12:48:00Z,28.4460,-96.3961,0.0,1.9,108.0,2.7,'11111222,11111222,11111222' 
TCOON,ioos:station:TCOON:057:1,2014-06-01T12:54:00Z,28.4460,-96.3961,0.0,2.1,100.0,2.4,'11111222,11111222,11111222' 
TCOON,ioos:station:TCOON:057:1,2014-06-01T13:00:00Z,28.4460,-96.3961,0.0,2.1,100.0,2.4,'1111122,1111122,1111122' 
TCOON,ioos:station:TCOON:057:1,2014-06-01T13:06:00Z,28.4460,-96.3961,0.0,2.5,114.0,2.8,'11111222,11111222,11111222' 
TCOON,ioos:station:TCOON:057:1,2014-06-01T13:12:00Z,28.4460,-96.3961,0.0,2.3,109.0,3.1,'11111222,11111222,11111222' 
TCOON,ioos:station:TCOON:057:1,2014-06-01T13:18:00Z,28.4460,-96.3961,0.0,2.8,101.0,3.4,'11111222,11111222,11111222' 
TCOON,ioos:station:TCOON:057:1,2014-06-01T13:24:00Z,28.4460,-96.3961,0.0,2.7,90.0,3.2,'11111222,11111222,11111222' 
TCOON,ioos:station:TCOON:057:1,2014-06-01T13:30:00Z,28.4460,-96.3961,0.0,2.5,105.0,3.4,'11111222,11111222,11111222' 
TCOON,ioos:station:TCOON:057:1,2014-06-01T13:36:00Z,28.4460,-96.3961,0.0,2.8,97.0,3.4,'11111222,11111222,11111222' 
TCOON,ioos:station:TCOON:057:1,2014-06-01T13:42:00Z,28.4460,-96.3961,0.0,2.9,94.0,3.7,'11111222,11111222,11111222' 
TCOON,ioos:station:TCOON:057:1,2014-06-01T13:48:00Z,28.4460,-96.3961,0.0,3.6,101.0,3.9,'11111222,11111222,11111222' 
TCOON,ioos:station:TCOON:057:1,2014-06-01T13:54:00Z,28.4460,-96.3961,0.0,4.0,110.0,4.7,'11111222,11111222,11111222' 
TCOON,ioos:station:TCOON:057:1,2014-06-01T14:00:00Z,28.4460,-96.3961,0.0,4.0,110.0,4.7,'1111122,1111122,1111122' 
TCOON,ioos:station:TCOON:057:1,2014-06-01T14:06:00Z,28.4460,-96.3961,0.0,4.0,100.0,4.5,'11111222,11111222,11111222' 
TCOON,ioos:station:TCOON:057:1,2014-06-01T14:12:00Z,28.4460,-96.3961,0.0,3.9,101.0,4.4,'11111222,11111222,11111222' 
TCOON,ioos:station:TCOON:057:1,2014-06-01T14:18:00Z,28.4460,-96.3961,0.0,3.9,109.0,4.4,'11111222,11111222,11111222' 
TCOON,ioos:station:TCOON:057:1,2014-06-01T14:24:00Z,28.4460,-96.3961,0.0,3.3,102.0,4.1,'11111222,11111222,11111222' 
TCOON,ioos:station:TCOON:057:1,2014-06-01T14:30:00Z,28.4460,-96.3961,0.0,3.0,106.0,3.6,'11111222,11111222,11111222' 
TCOON,ioos:station:TCOON:057:1,2014-06-01T14:36:00Z,28.4460,-96.3961,0.0,3.2,113.0,3.7,'11111222,11111222,11111222' 
TCOON,ioos:station:TCOON:057:1,2014-06-01T14:42:00Z,28.4460,-96.3961,0.0,3.2,113.0,3.9,'11111222,11111222,11111222' 
TCOON,ioos:station:TCOON:057:1,2014-06-01T14:48:00Z,28.4460,-96.3961,0.0,3.5,111.0,4.3,'11111222,11111222,11111222' 
TCOON,ioos:station:TCOON:057:1,2014-06-01T14:54:00Z,28.4460,-96.3961,0.0,3.4,100.0,4.0,'11111222,11111222,11111222' 
TCOON,ioos:station:TCOON:057:1,2014-06-01T15:00:00Z,28.4460,-96.3961,0.0,3.4,100.0,4.0,'1111122,1111122,1111122' 
TCOON,ioos:station:TCOON:057:1,2014-06-01T15:06:00Z,28.4460,-96.3961,0.0,3.6,107.0,4.4,'11111222,11111222,11111222' 
TCOON,ioos:station:TCOON:057:1,2014-06-01T15:12:00Z,28.4460,-96.3961,0.0,3.5,119.0,4.2,'11111222,11111222,11111222' 
TCOON,ioos:station:TCOON:057:1,2014-06-01T15:18:00Z,28.4460,-96.3961,0.0,2.8,126.0,3.7,'11111222,11111222,11111222' 
TCOON,ioos:station:TCOON:057:1,2014-06-01T15:24:00Z,28.4460,-96.3961,0.0,1.3,105.0,3.1,'11111222,11111222,11111222' 
TCOON,ioos:station:TCOON:057:1,2014-06-01T15:30:00Z,28.4460,-96.3961,0.0,1.6,108.0,2.0,'11111222,11111222,11111222' 
TCOON,ioos:station:TCOON:057:1,2014-06-01T15:36:00Z,28.4460,-96.3961,0.0,1.9,87.0,2.2,'11111222,11111222,11111222' 
TCOON,ioos:station:TCOON:057:1,2014-06-01T15:42:00Z,28.4460,-96.3961,0.0,1.4,79.0,2.2,'11111222,11111222,11111222' 
TCOON,ioos:station:TCOON:057:1,2014-06-01T15:48:00Z,28.4460,-96.3961,0.0,1.2,96.0,1.8,'11111222,11111222,11111222' 
TCOON,ioos:station:TCOON:057:1,2014-06-01T15:54:00Z,28.4460,-96.3961,0.0,1.1,95.0,2.2,'11111222,11111222,11111222' 
TCOON,ioos:station:TCOON:057:1,2014-06-01T16:00:00Z,28.4460,-96.3961,0.0,1.1,95.0,2.2,'1111122,1111122,1111122' 
TCOON,ioos:station:TCOON:057:1,2014-06-01T16:06:00Z,28.4460,-96.3961,0.0,3.1,107.0,3.6,'11111222,11111222,11111222' 
TCOON,ioos:station:TCOON:057:1,2014-06-01T16:12:00Z,28.4460,-96.3961,0.0,2.8,98.0,3.4,'11111222,11111222,11111222' 
TCOON,ioos:station:TCOON:057:1,2014-06-01T16:18:00Z,28.4460,-96.3961,0.0,3.1,101.0,3.9,'11111222,11111222,11111222' 
TCOON,ioos:station:TCOON:057:1,2014-06-01T16:24:00Z,28.4460,-96.3961,0.0,2.8,104.0,3.6,'11111222,11111222,11111222' 
TCOON,ioos:station:TCOON:057:1,2014-06-01T16:30:00Z,28.4460,-96.3961,0.0,2.8,98.0,3.4,'11111222,11111222,11111222' 
TCOON,ioos:station:TCOON:057:1,2014-06-01T16:36:00Z,28.4460,-96.3961,0.0,3.1,105.0,3.6,'11111222,11111222,11111222' 
TCOON,ioos:station:TCOON:057:1,2014-06-01T16:42:00Z,28.4460,-96.3961,0.0,2.3,118.0,3.6,'11111222,11111222,11111222' 
TCOON,ioos:station:TCOON:057:1,2014-06-01T16:48:00Z,28.4460,-96.3961,0.0,3.0,109.0,3.6,'11111222,11111222,11111222' 
TCOON,ioos:station:TCOON:057:1,2014-06-01T16:54:00Z,28.4460,-96.3961,0.0,2.8,112.0,3.5,'11111222,11111222,11111222' 
TCOON,ioos:station:TCOON:057:1,2014-06-01T17:00:00Z,28.4460,-96.3961,0.0,2.8,112.0,3.5,'1111122,1111122,1111122' 
TCOON,ioos:station:TCOON:057:1,2014-06-01T17:06:00Z,28.4460,-96.3961,0.0,3.3,120.0,4.2,'11111222,11111222,11111222' 
TCOON,ioos:station:TCOON:057:1,2014-06-01T17:12:00Z,28.4460,-96.3961,0.0,2.9,116.0,3.5,'11111222,11111222,11111222' 
TCOON,ioos:station:TCOON:057:1,2014-06-01T17:18:00Z,28.4460,-96.3961,0.0,3.2,126.0,3.7,'11111222,11111222,11111222' 
TCOON,ioos:station:TCOON:057:1,2014-06-01T17:24:00Z,28.4460,-96.3961,0.0,3.3,126.0,3.9,'11111222,11111222,11111222' 
TCOON,ioos:station:TCOON:057:1,2014-06-01T17:30:00Z,28.4460,-96.3961,0.0,4.1,125.0,4.6,'11111222,11111222,11111222' 
TCOON,ioos:station:TCOON:057:1,2014-06-01T17:36:00Z,28.4460,-96.3961,0.0,3.9,127.0,4.7,'11111222,11111222,11111222' 
TCOON,ioos:station:TCOON:057:1,2014-06-01T17:42:00Z,28.4460,-96.3961,0.0,4.0,125.0,4.5,'11111222,11111222,11111222' 
TCOON,ioos:station:TCOON:057:1,2014-06-01T17:48:00Z,28.4460,-96.3961,0.0,3.4,112.0,4.5,'11111222,11111222,11111222' 
TCOON,ioos:station:TCOON:057:1,2014-06-01T17:54:00Z,28.4460,-96.3961,0.0,4.1,122.0,4.7,'11111222,11111222,11111222' 
TCOON,ioos:station:TCOON:057:1,2014-06-01T18:00:00Z,28.4460,-96.3961,0.0,4.1,122.0,4.7,'1111122,1111122,1111122' 
TCOON,ioos:station:TCOON:057:1,2014-06-01T18:06:00Z,28.4460,-96.3961,0.0,4.0,126.0,4.3,'11111222,11111222,11111222' 
TCOON,ioos:station:TCOON:057:1,2014-06-01T18:12:00Z,28.4460,-96.3961,0.0,4.1,124.0,4.8,'11111222,11111222,11111222' 
TCOON,ioos:station:TCOON:057:1,2014-06-01T18:18:00Z,28.4460,-96.3961,0.0,3.7,122.0,4.7,'11111222,11111222,11111222' 
TCOON,ioos:station:TCOON:057:1,2014-06-01T18:24:00Z,28.4460,-96.3961,0.0,2.9,123.0,4.2,'11111222,11111222,11111222' 
TCOON,ioos:station:TCOON:057:1,2014-06-01T18:30:00Z,28.4460,-96.3961,0.0,3.4,115.0,4.1,'11111222,11111222,11111222' 
TCOON,ioos:station:TCOON:057:1,2014-06-01T18:36:00Z,28.4460,-96.3961,0.0,2.8,122.0,3.9,'11111222,11111222,11111222' 
TCOON,ioos:station:TCOON:057:1,2014-06-01T18:42:00Z,28.4460,-96.3961,0.0,3.3,127.0,4.5,'11111222,11111222,11111222' 
TCOON,ioos:station:TCOON:057:1,2014-06-01T18:48:00Z,28.4460,-96.3961,0.0,3.7,121.0,4.5,'11111222,11111222,11111222' 
TCOON,ioos:station:TCOON:057:1,2014-06-01T18:54:00Z,28.4460,-96.3961,0.0,3.3,115.0,4.4,'11111222,11111222,11111222' 
TCOON,ioos:station:TCOON:057:1,2014-06-01T19:00:00Z,28.4460,-96.3961,0.0,3.3,115.0,4.4,'1111122,1111122,1111122' 
TCOON,ioos:station:TCOON:057:1,2014-06-01T19:06:00Z,28.4460,-96.3961,0.0,3.5,122.0,4.1,'11111222,11111222,11111222' 
TCOON,ioos:station:TCOON:057:1,2014-06-01T19:12:00Z,28.4460,-96.3961,0.0,3.7,114.0,4.4,'11111222,11111222,11111222' 
TCOON,ioos:station:TCOON:057:1,2014-06-01T19:18:00Z,28.4460,-96.3961,0.0,3.3,113.0,4.1,'11111222,11111222,11111222' 
TCOON,ioos:station:TCOON:057:1,2014-06-01T19:24:00Z,28.4460,-96.3961,0.0,4.0,122.0,4.7,'11111222,11111222,11111222' 
TCOON,ioos:station:TCOON:057:1,2014-06-01T19:30:00Z,28.4460,-96.3961,0.0,4.1,122.0,4.9,'11111222,11111222,11111222' 
TCOON,ioos:station:TCOON:057:1,2014-06-01T19:36:00Z,28.4460,-96.3961,0.0,3.8,118.0,4.4,'11111222,11111222,11111222' 
TCOON,ioos:station:TCOON:057:1,2014-06-01T19:42:00Z,28.4460,-96.3961,0.0,3.9,119.0,4.6,'11111222,11111222,11111222' 
TCOON,ioos:station:TCOON:057:1,2014-06-01T19:48:00Z,28.4460,-96.3961,0.0,4.2,117.0,4.8,'11111222,11111222,11111222' 
TCOON,ioos:station:TCOON:057:1,2014-06-01T19:54:00Z,28.4460,-96.3961,0.0,3.8,123.0,4.6,'11111222,11111222,11111222' 
TCOON,ioos:station:TCOON:057:1,2014-06-01T20:00:00Z,28.4460,-96.3961,0.0,3.8,123.0,4.6,'1111122,1111122,1111122' 
TCOON,ioos:station:TCOON:057:1,2014-06-01T20:06:00Z,28.4460,-96.3961,0.0,3.9,116.0,4.5,'11111222,11111222,11111222' 
TCOON,ioos:station:TCOON:057:1,2014-06-01T20:12:00Z,28.4460,-96.3961,0.0,3.8,130.0,4.3,'11111222,11111222,11111222' 
TCOON,ioos:station:TCOON:057:1,2014-06-01T20:18:00Z,28.4460,-96.3961,0.0,3.4,118.0,4.3,'11111222,11111222,11111222' 